• In Österreich
  • Länderverzeichnis
  • Für 7 Tage
  • Wassertemperatur
  • Satellitenkarten
  • Wetterkarte
  • News
  • Widgets
  • user-avatar
    Anmelden

    Stündliche Wetter La Massana

    Heute, 21 Mai, Montag

    Zeit Temperatur Niederschläge Wind Luftdruck Luftfeuchtigkeit
    00:00 +5°C° 0 mm 1 m/S 608 mmHg 91%
    01:00 +4°C° 0 mm 1 m/S 608 mmHg 90%
    02:00 +4°C° 0 mm 1 m/S 608 mmHg 90%
    03:00 +4°C° 0 mm 1 m/S 607 mmHg 89%
    04:00 +5°C° 0 mm 1 m/S 608 mmHg 87%
    05:00 +5°C° 0 mm 1 m/S 608 mmHg 86%
    06:00 +6°C° 0 mm 1 m/S 609 mmHg 82%
    07:00 +8°C° 0,1 mm 1 m/S 609 mmHg 76%
    08:00 +9°C° 0,1 mm 1 m/S 610 mmHg 69%
    09:00 +11°C° 0,1 mm 1 m/S 610 mmHg 63%
    10:00 +11°C° 0,4 mm 1 m/S 610 mmHg 61%
    11:00 +12°C° 0,4 mm 1 m/S 610 mmHg 59%
    12:00 +13°C° 0,4 mm 2 m/S 611 mmHg 57%
    13:00 +12°C° 1,1 mm 1 m/S 610 mmHg 61%
    14:00 +12°C° 1,1 mm 1 m/S 610 mmHg 64%
    15:00 +12°C° 1,1 mm 1 m/S 609 mmHg 67%
    16:00 +11°C° 1,4 mm 1 m/S 609 mmHg 72%
    17:00 +10°C° 1,4 mm 1 m/S 609 mmHg 77%
    18:00 +9°C° 1,4 mm 1 m/S 609 mmHg 82%
    19:00 +8°C° 0,4 mm 1 m/S 609 mmHg 84%
    20:00 +7°C° 0,4 mm 1 m/S 608 mmHg 85%
    21:00 +6°C° 0,4 mm 1 m/S 608 mmHg 87%
    22:00 +6°C° 0,2 mm 1 m/S 608 mmHg 87%
    23:00 +6°C° 0,2 mm 1 m/S 608 mmHg 87%

    Morgen, 22 Mai, Dienstag

    Zeit Temperatur Niederschläge Wind Luftdruck Luftfeuchtigkeit
    00:00 +5°C° 0,2 mm 1 m/S 608 mmHg 88%
    01:00 +5°C° 0,2 mm 1 m/S 608 mmHg 87%
    02:00 +5°C° 0,2 mm 1 m/S 608 mmHg 87%
    03:00 +5°C° 0,2 mm 1 m/S 608 mmHg 86%
    04:00 +6°C° 0 mm 1 m/S 608 mmHg 85%
    05:00 +6°C° 0 mm 1 m/S 609 mmHg 84%
    06:00 +7°C° 0 mm 1 m/S 609 mmHg 83%
    07:00 +8°C° 0,2 mm 1 m/S 610 mmHg 77%
    08:00 +10°C° 0,2 mm 1 m/S 611 mmHg 72%
    09:00 +11°C° 0,2 mm 1 m/S 611 mmHg 67%
    10:00 +11°C° 0,8 mm 1 m/S 611 mmHg 68%
    11:00 +11°C° 0,8 mm 1 m/S 611 mmHg 69%
    12:00 +11°C° 0,8 mm 1 m/S 611 mmHg 69%
    13:00 +12°C° 0,9 mm 1 m/S 611 mmHg 70%
    14:00 +12°C° 0,9 mm 1 m/S 612 mmHg 71%
    15:00 +12°C° 0,9 mm 1 m/S 612 mmHg 72%
    16:00 +11°C° 0,6 mm 1 m/S 611 mmHg 76%
    17:00 +11°C° 0,6 mm 1 m/S 611 mmHg 79%
    18:00 +9°C° 0,6 mm 0 m/S 611 mmHg 82%
    19:00 +9°C° 0,1 mm 1 m/S 611 mmHg 85%
    20:00 +8°C° 0,1 mm 1 m/S 611 mmHg 88%
    21:00 +6°C° 0,1 mm 1 m/S 611 mmHg 90%
    22:00 +6°C° 0 mm 1 m/S 611 mmHg 90%
    23:00 +5°C° 0 mm 1 m/S 611 mmHg 89%

    übermorgen, 23 Mai, Mittwoch

    Zeit Temperatur Niederschläge Wind Luftdruck Luftfeuchtigkeit
    00:00 +5°C° 0 mm 1 m/S 611 mmHg 88%
    01:00 +5°C° 0 mm 1 m/S 611 mmHg 88%
    02:00 +5°C° 0 mm 1 m/S 611 mmHg 87%
    03:00 +5°C° 0 mm 1 m/S 610 mmHg 86%
    04:00 +6°C° 0 mm 1 m/S 611 mmHg 85%
    05:00 +6°C° 0 mm 1 m/S 612 mmHg 83%
    06:00 +7°C° 0 mm 1 m/S 612 mmHg 82%
    07:00 +9°C° 0 mm 1 m/S 613 mmHg 75%
    08:00 +11°C° 0 mm 1 m/S 614 mmHg 68%
    09:00 +13°C° 0 mm 1 m/S 615 mmHg 62%
    10:00 +14°C° 0,1 mm 1 m/S 615 mmHg 62%
    11:00 +14°C° 0,1 mm 1 m/S 615 mmHg 62%
    12:00 +14°C° 0,1 mm 2 m/S 615 mmHg 62%
    13:00 +14°C° 0,7 mm 2 m/S 615 mmHg 65%
    14:00 +14°C° 0,7 mm 2 m/S 614 mmHg 69%
    15:00 +14°C° 0,7 mm 2 m/S 614 mmHg 72%
    16:00 +13°C° 1,1 mm 1 m/S 614 mmHg 77%
    17:00 +12°C° 1,1 mm 1 m/S 613 mmHg 81%
    18:00 +11°C° 1,1 mm 1 m/S 613 mmHg 86%
    19:00 +10°C° 0,3 mm 1 m/S 613 mmHg 88%
    20:00 +9°C° 0,3 mm 1 m/S 613 mmHg 89%
    21:00 +8°C° 0,3 mm 1 m/S 612 mmHg 91%
    22:00 +8°C° 0,1 mm 1 m/S 612 mmHg 91%
    23:00 +8°C° 0,1 mm 1 m/S 612 mmHg 91%

    24 Mai, Donnerstag

    Zeit Temperatur Niederschläge Wind Luftdruck Luftfeuchtigkeit
    00:00 +7°C° 0,1 mm 1 m/S 612 mmHg 91%
    01:00 +7°C° 0,1 mm 1 m/S 612 mmHg 90%
    02:00 +7°C° 0,1 mm 1 m/S 611 mmHg 90%
    03:00 +7°C° 0,1 mm 1 m/S 611 mmHg 89%
    04:00 +8°C° 0 mm 1 m/S 612 mmHg 87%
    05:00 +9°C° 0 mm 1 m/S 612 mmHg 84%
    06:00 +10°C° 0 mm 1 m/S 612 mmHg 82%
    07:00 +11°C° 0 mm 1 m/S 613 mmHg 74%
    08:00 +13°C° 0 mm 1 m/S 614 mmHg 66%
    09:00 +15°C° 0 mm 2 m/S 615 mmHg 59%
    10:00 +16°C° 0,3 mm 2 m/S 615 mmHg 57%
    11:00 +17°C° 0,3 mm 2 m/S 615 mmHg 55%
    12:00 +17°C° 0,3 mm 3 m/S 616 mmHg 53%
    13:00 +17°C° 0,8 mm 3 m/S 615 mmHg 55%
    14:00 +17°C° 0,8 mm 3 m/S 615 mmHg 56%
    15:00 +17°C° 0,8 mm 3 m/S 615 mmHg 58%
    16:00 +16°C° 0,3 mm 2 m/S 614 mmHg 62%
    17:00 +15°C° 0,3 mm 2 m/S 614 mmHg 66%
    18:00 +14°C° 0,3 mm 2 m/S 614 mmHg 70%
    19:00 +12°C° 0 mm 2 m/S 613 mmHg 74%
    20:00 +11°C° 0 mm 1 m/S 613 mmHg 77%
    21:00 +9°C° 0 mm 1 m/S 612 mmHg 81%
    22:00 +9°C° 0 mm 1 m/S 612 mmHg 78%
    23:00 +8°C° 0 mm 1 m/S 612 mmHg 76%

    25 Mai, Freitag

    Zeit Temperatur Niederschläge Wind Luftdruck Luftfeuchtigkeit
    00:00 +8°C° 0 mm 1 m/S 612 mmHg 73%
    01:00 +8°C° 0 mm 1 m/S 611 mmHg 71%
    02:00 +7°C° 0 mm 1 m/S 611 mmHg 69%
    03:00 +7°C° 0 mm 1 m/S 611 mmHg 67%
    04:00 +8°C° 0 mm 1 m/S 612 mmHg 66%
    05:00 +9°C° 0 mm 1 m/S 612 mmHg 64%
    06:00 +10°C° 0 mm 1 m/S 613 mmHg 63%
    07:00 +12°C° 0 mm 2 m/S 613 mmHg 57%
    08:00 +15°C° 0 mm 2 m/S 614 mmHg 51%
    09:00 +17°C° 0 mm 3 m/S 615 mmHg 45%
    10:00 +18°C° 0 mm 3 m/S 616 mmHg 45%
    11:00 +18°C° 0 mm 3 m/S 616 mmHg 45%
    12:00 +19°C° 0 mm 3 m/S 616 mmHg 45%
    13:00 +19°C° 0,1 mm 3 m/S 616 mmHg 45%
    14:00 +19°C° 0,1 mm 3 m/S 616 mmHg 46%
    15:00 +19°C° 0,1 mm 4 m/S 615 mmHg 46%
    16:00 +18°C° 0 mm 3 m/S 615 mmHg 51%
    17:00 +17°C° 0 mm 3 m/S 614 mmHg 56%
    18:00 +15°C° 0 mm 2 m/S 614 mmHg 61%
    19:00 +14°C° 0 mm 2 m/S 613 mmHg 63%
    20:00 +12°C° 0 mm 2 m/S 613 mmHg 66%
    21:00 +9°C° 0 mm 2 m/S 612 mmHg 68%
    22:00 +9°C° 0 mm 2 m/S 612 mmHg 65%
    23:00 +8°C° 0 mm 2 m/S 612 mmHg 61%

    26 Mai, Samstag

    Zeit Temperatur Niederschläge Wind Luftdruck Luftfeuchtigkeit
    00:00 +8°C° 0 mm 2 m/S 612 mmHg 57%
    01:00 +8°C° 0 mm 2 m/S 612 mmHg 57%
    02:00 +8°C° 0 mm 2 m/S 612 mmHg 58%
    03:00 +8°C° 0 mm 2 m/S 612 mmHg 59%
    04:00 +9°C° 0 mm 2 m/S 612 mmHg 60%
    05:00 +10°C° 0 mm 2 m/S 613 mmHg 61%
    06:00 +12°C° 0 mm 2 m/S 613 mmHg 63%
    07:00 +14°C° 0 mm 2 m/S 614 mmHg 55%
    08:00 +17°C° 0 mm 3 m/S 615 mmHg 48%
    09:00 +19°C° 0 mm 3 m/S 616 mmHg 40%
    10:00 +20°C° 0,1 mm 4 m/S 617 mmHg 39%
    11:00 +21°C° 0,1 mm 4 m/S 617 mmHg 38%
    12:00 +21°C° 0,1 mm 5 m/S 617 mmHg 37%
    13:00 +21°C° 0 mm 5 m/S 617 mmHg 38%
    14:00 +21°C° 0 mm 5 m/S 617 mmHg 38%
    15:00 +21°C° 0 mm 4 m/S 616 mmHg 39%
    16:00 +20°C° 0 mm 4 m/S 616 mmHg 44%
    17:00 +18°C° 0 mm 3 m/S 615 mmHg 50%
    18:00 +17°C° 0 mm 3 m/S 615 mmHg 55%
    19:00 +14°C° 0 mm 3 m/S 614 mmHg 57%
    20:00 +13°C° 0 mm 2 m/S 614 mmHg 58%
    21:00 +12°C° 0 mm 2 m/S 613 mmHg 59%
    22:00 +10°C° 0 mm 2 m/S 613 mmHg 57%
    23:00 +10°C° 0 mm 2 m/S 613 mmHg 55%
    Mehr zeigen